Location: Le Vaud
(46.4779°N, 6.2346°E)
Time: 11:28:33
(UTC+00:00)

Cosmos 1238 - Pass Details

Date: 18 February 2020
Orbit: 392 x 1426 km, 83.0° (Epoch: 08 April)

Event Time Altitude Azimuth Distance (km) Brightness Sun altitude
Rises 05:00:46 0° 188° (S) 2,348 8.0 -16.8°
Reaches altitude 10° 05:02:47 10° 188° (S) 1,448 6.9 -16.5°
Maximum altitude 05:05:49 86° 278° (W) 400 4.0 -16.0°
Drops below altitude 10° 05:08:55 10° 8° (N) 1,478 7.1 -15.4°
Sets 05:11:00 0° 8° (N) 2,403 8.2 -15.1°
